STARLINK-30952, 58405

Orbit data source: Space-Track

STARLINK-30952, 58405 is a payload satellite owned by SpaceX/Seattle (US) in LEO that was launched on Wed, 22 Nov 2023 UTC via an FALCON 9 launch vehicle from the Air Force Eastern Test Range (AFETR). Payload-class satellites include a variety of spacecraft equipped with specific instruments for various scientific and technological missions. These include communications satellites like Starlink; space stations such as the ISS; scientific satellites like the Hubble; Earth observation satellites from companies like Planet Labs, Umbra, and HawkEye 360; GPS; miniature CubeSats for education and research; and military/defense satellites.

Loading next visibility...
Identifier
58405, 2023-180D
Orbit
LEO
Country
Flag of USUS
Related business
Manufacturer
SpaceX/Seattle
Mission
Operational Commercial Communications
Bus & Motor
STARLINK V2M, Unknown motor
Mass
730 kg wet, ~700 kg dry
Launch date (UTC)
2023-11-22 (2 years ago)
Launch vehicle
FALCON 9
Launch site
Air Force Eastern Test Range (AFETR)
Object type
Payload
Rocket body
Debris
Shape & HBR
Box + 2 Pan, 14.5 m
Radar Cross Section
33.884 m², Large (>1 m²)

Expand to show TLE details & history
Last TLE update: 20 hours ago

TLE from 20 hours ago
0 STARLINK-30952
1 58405U 23180D   25249.96203228  .00002334  00000-0  18779-3 0  9997
2 58405  43.0024 334.7025 0001239 264.5385  95.5316 15.02536463 99832
Epoch: 2025-09-06T23:05Z
TLE epoch observation values (Epoch: 2025-09-06T23:05:19.588Z)
Latitude
-0.00004°
Longitude
2.0825°
Altitude
558.939 km
Speed
7.584 km/s
True Right ascension
22h 18m 48s
True Declination
0° 00' 00"
Sunlit
Object was in full shadow at epoch
Visualization orbit readout
Latitude
Unknown
Longitude
Unknown
Altitude
Unknown
Speed
Unknown
Apparent Right ascension
Unknown
Apparent Declination
Unknown
Sunlit
N/A
Visualization observer readout
Local Sidereal Time
11:42:52
Azimuth
Unknown
Elevation
Unknown
Doppler factor
Unknown
Orbital elements
Apogee altitude
561.861 km
Perigee altitude
560.142 km
Semi-major axis
6,939.139 km
Eccentricity
0.00012
Inclination
43.0024°
RAAN
334.7025°
Arg. of periapsis
264.5385°
True anomaly
95.54573°
Mean anomaly
95.5316°
Eccentric anomaly
95.53867°
Mean motion
3.75478 °/min
Orbital period
95.88 mins
BSTAR
0.00018779
Loading maneuver chart data...
Computing Atmospheric mass density...
Loading historical data...
Loading historical data...
Loading historical data...
Loading historical data...
Loading historical data...
Loading historical data...
Loading historical data...

Documentation

Showing up to 5 results
|